This is the latest recevied weather packets stored in our database for station/object SP9KB-13. If no packets are shown the sender has not sent any weather packets the latest 10 day(s).
| Time | Temp. | Humidity | Pressure | Rain* | Wind** | Luminosity | Snow |
|---|---|---|---|---|---|---|---|
| 1777119456 | 18.89° C | 39% | 991.7 hPa | 0 mm | - | - | - |
| 1777119155 | 18.89° C | 40% | 991.6 hPa | 0 mm | - | - | - |
| 1777118855 | 18.33° C | 38% | 991.8 hPa | 0 mm | - | - | - |
| 1777118554 | 18.33° C | 38% | 992 hPa | 0 mm | - | - | - |
| 1777118254 | 18.33° C | 39% | 992 hPa | 0 mm | - | - | - |
| 1777117953 | 17.78° C | 40% | 992.2 hPa | 0 mm | - | - | - |
| 1777117653 | 17.78° C | 42% | 992 hPa | 0 mm | - | - | - |
| 1777117352 | 18.33° C | 43% | 992.1 hPa | 0 mm | - | - | - |
| 1777117052 | 18.33° C | 40% | 992.1 hPa | 0 mm | - | - | - |
| 1777116751 | 18.33° C | 42% | 992.2 hPa | 0 mm | - | - | - |
| 1777116450 | 18.33° C | 41% | 992.5 hPa | 0 mm | - | - | - |
| 1777116150 | 18.33° C | 42% | 992.3 hPa | 0 mm | - | - | - |
| 1777115849 | 19.44° C | 43% | 992.5 hPa | 0 mm | - | - | - |
| 1777115549 | 18.89° C | 42% | 992.6 hPa | 0 mm | - | - | - |
| 1777115248 | 18.33° C | 43% | 992.4 hPa | 0 mm | - | - | - |
| 1777114948 | 18.33° C | 43% | 992.5 hPa | 0 mm | - | - | - |
| 1777114647 | 17.22° C | 45% | 992.7 hPa | 0 mm | - | - | - |
| 1777114346 | 17.22° C | 47% | 992.6 hPa | 0 mm | - | - | - |
| 1777114046 | 16.67° C | 46% | 992.9 hPa | 0 mm | - | - | - |
| 1777113745 | 16.11° C | 49% | 992.9 hPa | 0 mm | - | - | - |
| 1777113445 | 17.78° C | 45% | 992.7 hPa | 0 mm | - | - | - |
| 1777113144 | 17.22° C | 47% | 992.9 hPa | 0 mm | - | - | - |
| 1777112844 | 16.67° C | 48% | 992.8 hPa | 0 mm | - | - | - |
| 1777112543 | 17.22° C | 47% | 992.9 hPa | 0 mm | - | - | - |
| 1777112243 | 16.11° C | 50% | 992.8 hPa | 0 mm | - | - | - |
* Rain latest hour (hover to see other rain measurements)
** Current wind speed in m/s (hover to see current wind gust speed)